Content
SEND FEEDBACK

Daily
Averages
Monthly
Summary
United States of America

MEEKER, OKLAHOMA


Home > North America > United States > Oklahoma
Elevation: 932 feet     Latitude: 35 30N     Longitude: 096 59W

WEATHER
 
SELECT A DAY
Number of Records: 179,295;   Date Range: 1/3/95 - 9/18/14
 
SHARE

PRINT THIS DATA

[ ← Previous Day ]
WEATHER ALMANAC - JANUARY 31, 2013
[ Next Day → ]
[ °C ]   °F
Weather ElementAverageHighLow
Temperature38.9 °F61 °F (12:53 pm)24.1 °F (11:53 pm)
Dewpoint21.3 °F27 °F (10:53 am)15.1 °F (11:53 pm)
Humidity52.7 %70 % (7:53 pm)21 % (12:53 pm)
Barometer30.17 in30.38 in (8:53 pm)30.04 in (3:53 am)
Wind Speed13.5 mph23 mph (2:53 pm)
Wind Gust28.8 mph (3:53 pm)
Weather ElementAverage
Visibility10 mi
Wind DirectionSSE (155.2 °)

Weather ElementTotal
Precipitation---
Heating Degree Days22.5 (Base 65)
Averaged from 23 records on January 31, 2013
WEATHER CONDITIONS BREAKOUT
WIND DIRECTION BREAKOUT
WEATHER BY HOUR - JANUARY 31, 2013
[ °C ]   °F
Local TimeTemperatureDewpointHumidityBarometerVisibilityWind DirectionWind SpeedGust SpeedPrecipitationEventsConditions
1:53 AM30.9 °F19.9 °F64 %30.06 in10.0 miSW (220°)9.2 mphClear
2:53 AM33.1 °F18.0 °F54 %30.05 in10.0 miSW (230°)8.1 mphClear
3:53 AM32.0 °F18.0 °F56 %30.04 in10.0 miSW (230°)10.4 mphClear
4:53 AM30.9 °F17.1 °F57 %30.05 in10.0 miWSW (240°)6.9 mphClear
5:53 AM27.0 °F18.0 °F69 %30.06 in10.0 miSSW (200°)9.2 mphClear
6:53 AM28.0 °F18.0 °F66 %30.06 in10.0 miSouth (190°)9.2 mphClear
7:53 AM30.0 °F18.0 °F61 %30.09 in10.0 miNorth (350°)15.0 mphClear
8:53 AM36.0 °F19.0 °F50 %30.12 in10.0 miWest (280°)3.5 mphClear
9:53 AM39.9 °F23.0 °F51 %30.12 in10.0 miWest (270°)5.8 mphClear
10:53 AM48.0 °F27.0 °F44 %30.10 in10.0 miSW (230°)6.9 mphClear
11:53 AM57.0 °F24.1 °F28 %30.10 in10.0 miNW (310°)11.5 mphClear
12:53 PM61.0 °F21.0 °F21 %30.07 in10.0 miNorth (350°)8.1 mphClear
1:53 PM61.0 °F24.1 °F24 %30.08 in10.0 miNorth (10°)12.7 mphClear
2:53 PM57.9 °F25.0 °F28 %30.10 in10.0 miNNE (30°)23.0 mphClear
3:53 PM53.1 °F26.1 °F35 %30.17 in10.0 miNE (40°)21.9 mph28.8 mphClear
4:53 PM48.9 °F26.1 °F41 %30.23 in10.0 miNE (40°)23.0 mphClear
5:53 PM41.0 °F25.0 °F53 %30.31 in10.0 miENE (60°)16.1 mphClear
6:53 PM37.9 °F27.0 °F65 %30.34 in10.0 miNE (50°)18.4 mphClear
7:53 PM33.1 °F24.1 °F70 %30.37 in10.0 miNE (40°)23.0 mphClear
8:53 PM30.0 °F21.0 °F69 %30.38 in10.0 miNE (40°)19.6 mphClear
9:53 PM27.0 °F18.0 °F69 %30.38 in10.0 miNE (40°)19.6 mphClear
10:53 PM26.1 °F17.1 °F69 %30.37 in10.0 miENE (60°)16.1 mphClear
11:53 PM24.1 °F15.1 °F69 %30.37 in10.0 miENE (60°)12.7 mphClear
Hourly data recorded from KCSM, located miles away from Meeker, Oklahoma







STORIES FROM OUR PARTNERS